Regional Weather Roundup
Issued by NWS

Home | Current Version | Previous Version | Graphics & Text | Print | Product List | Glossary On
Versions: 1 2 3 4 5 6 7 8 9 10 11 12 13 14 15 16 17 18 19 20 21 22 23 24 25 26 27 28 29 30 31 32 33 34 35 36 37 38 39 40 41 42 43 44 45 46 47 48 49 50
000
ASUS45 KABQ 041310
RWRNM
NEW MEXICO REGIONAL WEATHER ROUNDUP
NATIONAL WEATHER SERVICE ALBUQUERQUE NM
700 AM MDT WED MAY 04 2016

NOTE: "FAIR" MEANS FEW OR NO CLOUDS BELOW 12,000 FEET AGL WITH NO
       SIGNIFICANT WEATHER OR OBSTRUCTIONS TO VISION.

      THIS PRODUCT IS RELEASED AS TWO VERSIONS.  ONE VERSION NEAR
      THE TOP OF THE HOUR CONTAINING PRELIMINARY DATA FROM ALBUQUERQUE
      AND OTHER STATIONS.  A FINAL VERSION WITH ADDITIONAL DATA IS
      ISSUED ABOUT 10 MINUTES AFTER THE HOUR.

NMZ501-503-504-510>518-041400-
NORTHWEST PLATEAU/NORTHCENTRAL MOUNTAINS

CITY           SKY/WX    TMP DP  RH WIND       PRES   REMARKS
FARMINGTON     FAIR      45  36  70 NE5       30.29R
LOS ALAMOS     FAIR      47  17  29 SW5       30.40R
SANTA FE       FAIR      42  30  62 NE7       30.35R
TAOS           FAIR      34  25  69 N6        30.40R WCI  29
ANGEL FIRE     FAIR      25  23  91 CALM      30.45S

$$
NMZ402-403-502-505>509-041400-
WESTCENTRAL MOUNTAINS/SOUTHWEST MOUNTAINS

CITY           SKY/WX    TMP DP  RH WIND       PRES   REMARKS
GALLUP         FAIR      36  32  85 E3        30.32R
GRANTS         FAIR      33  33  98 NW5       30.37R WCI  29
SILVER CITY      N/A     46  27  46 NE5       30.29R

$$
NMZ407-409-411-412-041400-
SOUTHERN DESERTS

CITY           SKY/WX    TMP DP  RH WIND       PRES   REMARKS
LORDSBURG      FAIR      54  32  43 SE13      30.20R
DEMING         FAIR      54  31  41 NE8       30.23R
LAS CRUCES     FAIR      58  31  36 S8        30.25R
HOLLOMAN AFB   FAIR      52  31  44 SE3       30.23R
ALAMOGORDO     FAIR      46  28  49 E5        30.25R
T OR C         FAIR      50  27  40 W3        30.26R

$$
NMZ519>523-041400-
CENTRAL VALLEYS/CENTRAL HIGHLANDS

CITY           SKY/WX    TMP DP  RH WIND       PRES   REMARKS
ALBUQUERQUE    FAIR      51  30  44 N9        30.32R
DOUBLE EAGLE   CLEAR     41  32  70 N7        30.34R
MORIARTY ARPT  FAIR      30  23  75 N3        30.38R
CLINES CORNERS FAIR      44  22  41 S7        30.36R
BELEN          FAIR      44  29  55 NW3       30.31R
SOCORRO        FAIR      50  32  48 N5        30.28R

$$
NMZ524>526-539-540-041400-
SOUTHCENTRAL MOUNTAINS

CITY           SKY/WX    TMP DP  RH WIND       PRES   REMARKS
RUIDOSO          N/A     46  28  49 CALM      30.38R

$$
NMZ527>531-041400-
NORTHEAST HIGHLANDS/NORTHEAST PLAINS

CITY           SKY/WX    TMP DP  RH WIND       PRES   REMARKS
LAS VEGAS      FAIR      38  29  70 N3        30.37R
RATON          FAIR      35  28  75 NE8       30.34R WCI  29
CLAYTON        FAIR      54  34  46 NW13      30.26R HAZE

$$
NMZ532>537-041400-
EASTCENTRAL PLAINS

CITY           SKY/WX    TMP DP  RH WIND       PRES   REMARKS
TUCUMCARI      FAIR      46  34  62 W5        30.25R
CANNON AFB     FAIR      50  34  55 NW9       30.25R
CLOVIS AIRPORT FAIR      46  34  61 NW10      30.26S

$$
NMZ028-029-538-041400-
SOUTHEAST PLAINS

CITY           SKY/WX    TMP DP  RH WIND       PRES   REMARKS
ROSWELL        FAIR      47  33  58 N5        30.26R
ARTESIA        FAIR      48  32  53 NW6       30.27R
CARLSBAD       FAIR      50  36  58 CALM      30.24R
HOBBS          SUNNY     45  45 100 W8        30.25R


$$



USA.gov is the U.S. government's official web portal to all federal, state and local government web resources and services.